Regional Weather Roundup
Issued by NWS Little Rock, AR

Home | Current Version | Previous Version | Graphics & Text | Print | Product List | Glossary On
Versions: 1 2 3 4 5 6 7 8 9 10 11 12 13 14 15 16 17 18 19 20 21 22 23 24 25 26 27 28 29 30 31
000
ASUS44 KLZK 070605
RWRLZK

WEATHER ROUNDUP FOR ARKANSAS
NATIONAL WEATHER SERVICE LITTLE ROCK AR
1200 AM CST WED DEC 07 2016

NOTE: "FAIR" INDICATES FEW OR NO CLOUDS BELOW 12,000 FEET WITH NO
SIGNIFICANT WEATHER AND/OR OBSTRUCTIONS TO VISIBILITY.

ARZ001-003-010-029-070700-
NORTHWEST ARKANSAS

CITY           SKY/WX    TMP DP  RH WIND       PRES   REMARKS
FAYETTEVILLE   CLOUDY    33  25  72 NE3       30.10F
6HR MIN TEMP:  31; 6HR MAX TEMP:  39;

FORT SMITH     PTCLDY    38  30  73 CALM      30.11S
6HR MIN TEMP:  38; 6HR MAX TEMP:  46;

HARRISON       CLOUDY    32  24  72 CALM      30.11R
6HR MIN TEMP:  32; 6HR MAX TEMP:  38;

BENTONVILLE    PTCLDY    34  18  51 NE6       30.11S WCI  29
6HR MIN TEMP:  34; 6HR MAX TEMP:  37;

ROGERS         PTCLDY    30  21  69 NE5       30.12R WCI  25
6HR MIN TEMP:  30; 6HR MAX TEMP:  37;

SILOAM SPGS    PTCLDY    32  19  59 NE5       30.11S WCI  27
6HR MIN TEMP:  32; 6HR MAX TEMP:  37;

HIGHFILL       PTCLDY    32  22  66 NE5       30.11R WCI  27
6HR MIN TEMP:  32; 6HR MAX TEMP:  38;

$$

ARZ004-005-016-070700-
NORTH CENTRAL ARKANSAS

CITY           SKY/WX    TMP DP  RH WIND       PRES   REMARKS
BATESVILLE     CLOUDY    37  34  87 NW3       30.14R
6HR MIN TEMP:  37; 6HR MAX TEMP:  45;

FLIPPIN        CLOUDY    37  21  52 N3        30.10S
6HR MIN TEMP:  37; 6HR MAX TEMP:  43;

MTN HOME       PTCLDY    34  27  75 CALM      30.11R
6HR MIN TEMP:  33; 6HR MAX TEMP:  40;

$$

ARZ040-041-070700-
WEST CENTRAL ARKANSAS

CITY           SKY/WX    TMP DP  RH WIND       PRES   REMARKS
MENA           CLOUDY    45  41  87 N5        30.08S
$$

ARZ009-017-025-026-028-070700-
NORTHEAST ARKANSAS

CITY           SKY/WX    TMP DP  RH WIND       PRES   REMARKS
CORNING        FAIR      37  36  93 N5        30.14R
JONESBORO      CLOUDY    40  34  79 N6        30.12R
6HR MIN TEMP:  40; 6HR MAX TEMP:  46;

NEWPORT        CLOUDY    40  36  86 N8        30.12S
6HR MIN TEMP:  39; 6HR MAX TEMP:  44;

WALNUT RIDGE   CLOUDY    37  32  81 N8        30.13R
6HR MIN TEMP:  37; 6HR MAX TEMP:  43;

BLYTHEVILLE    CLOUDY    41  37  86 NE10      30.10F
6HR MIN TEMP:  40; 6HR MAX TEMP:  45;

$$

ARZ022-023-033-042-044-070700-
CENTRAL ARKANSAS

CITY           SKY/WX    TMP DP  RH WIND       PRES   REMARKS
LITTLE ROCK    CLOUDY    43  38  82 NE7       30.12R
6HR MIN TEMP:  43; 6HR MAX TEMP:  47;

JACKSONVILLE   CLOUDY    44  36  75 N7        30.11R
6HR MIN TEMP:  44; 6HR MAX TEMP:  48;

SEARCY         CLOUDY    42  36  79 N8        30.13R
6HR MIN TEMP:  42; 6HR MAX TEMP:  47;

HOT SPRINGS    CLOUDY    44  38  79 NE3       30.10R
6HR MIN TEMP:  43; 6HR MAX TEMP:  48;

RUSSELLVILLE   CLEAR     35  32  88 CALM      30.11S
6HR MIN TEMP:  35; 6HR MAX TEMP:  45;

CLINTON        FAIR      36  34  93 CALM      30.12F
$$

ARZ036-070700-
EAST ARKANSAS

CITY           SKY/WX    TMP DP  RH WIND       PRES   REMARKS
WEST MEMPHIS   CLOUDY    43  38  82 NE12      30.08S
6HR MIN TEMP:  39; 6HR MAX TEMP:  46;

$$

ARZ050-053-066-070-073-070700-
SOUTHWEST ARKANSAS

CITY           SKY/WX    TMP DP  RH WIND       PRES   REMARKS
ARKADELPHIA    CLOUDY    45  41  86 NE6         N/A
6HR MIN TEMP:  42; 6HR MAX TEMP:  46;

CAMDEN         CLOUDY    46  39  76 NE8       30.09S
TEXARKANA      CLOUDY    48  47  96 CALM      30.06S
6HR MIN TEMP:  48; 6HR MAX TEMP:  49;

EL DORADO      CLOUDY    48  48 100 CALM      30.07R
6HR MIN TEMP:  48; 6HR MAX TEMP:  49;

DE QUEEN       CLOUDY    48  44  86 CALM      30.06R
6HR MIN TEMP:  48; 6HR MAX TEMP:  52;

$$

ARZ056-057-069-070700-
SOUTHEAST ARKANSAS

CITY           SKY/WX    TMP DP  RH WIND       PRES   REMARKS
PINE BLUFF     CLOUDY    45  40  82 N8        30.11R
6HR MIN TEMP:  42; 6HR MAX TEMP:  47; 6HR PCP: TRACE;

STUTTGART      CLOUDY    43  32  65 N13       30.10S
6HR MIN TEMP:  43; 6HR MAX TEMP:  46;

MONTICELLO     CLOUDY    47  45  93 CALM      30.07S
6HR MIN TEMP:  41; 6HR MAX TEMP:  47;


$$






USA.gov is the U.S. government's official web portal to all federal, state and local government web resources and services.